Flag Weather past 2 weeks in Livonia, Michigan, U.S.A.

Now
51 °F

Rain. Fog.


Feels Like: 47 °F
Forecast: 37 / 57 °F
Wind: 13 mph from Southeast

Location: Detroit Metropolitan Wayne County Airport

Current Time: Nov 23, 2014 at 11:14:10 PM

Latest Report: Nov 23, 2014 at 9:53 PM


Visibility: 4 mi

Pressure: 29.40 "Hg

Humidity: 92%

Dew point: 49 °F

Location of LivoniaLocation

Historic Weather in Livonia — Graph

°F

Livonia temperature yesterday

Maximum temperature yesterday: 48 °F (at 10:53 PM)
Minimum temperature yesterday: 20 °F (at 12:53 AM)
Average temperature yesterday: 36 °F

Past Weeks' High & Low Weather Summary

 TemperatureHumidityPressure
High63 °F (Nov 11, 1:53 PM)100% (Nov 17, 2:59 AM)30.51 "Hg (Nov 17, 2:59 AM)
Low11 °F (Nov 18, 6:53 AM)40% (Nov 10, 7:53 PM)29.40 "Hg (Nov 23, 9:53 PM)
Average32 °F71%30.04 "Hg
* Reported Nov 8 9:53 PM — Nov 23 9:53 PM, Livonia, Weather by CustomWeather, © 2014

Note: Actual official high and low records may vary slightly from our data, if they occured in-between our weather recording intervals... More about our weather records

Advertising

Livonia weather history for previous 24 hours

 ConditionsComfort  
Time TempWeatherWind HumidityBarometerVisibility
9:53 PM
Nov 23
51 °FRain. Fog.13 mph92%29.40 "Hg4 mi
8:53 PM50 °FHeavy rain. Mostly cloudy.12 mph89%29.47 "Hg3 mi
7:53 PM50 °FLight rain. Overcast.8 mph83%29.54 "Hg10 mi
6:53 PM51 °FLight rain. Mostly cloudy.8 mph77%29.58 "Hg10 mi
5:53 PM52 °FLight rain. Overcast.5 mph69%29.64 "Hg10 mi
4:53 PM52 °FMostly cloudy.8 mph69%29.67 "Hg10 mi
3:53 PM51 °FMostly cloudy.12 mph74%29.71 "Hg10 mi
2:53 PM52 °FMostly cloudy.7 mph75%29.75 "Hg10 mi
1:53 PM51 °FMostly cloudy.8 mph77%29.79 "Hg10 mi
12:53 PM49 °FMostly cloudy.7 mph84%29.84 "Hg10 mi
11:53 AM47 °FCloudy.7 mph90%29.89 "Hg9 mi
10:53 AM46 °FFog.7 mph89%29.94 "Hg6 mi
9:53 AM44 °FLight rain. Fog.7 mph96%29.96 "Hg4 mi
8:53 AM45 °FFog.8 mph93%29.96 "Hg5 mi
7:53 AM45 °FMore clouds than sun.8 mph93%29.95 "Hg7 mi
7:04 AM45 °FLight rain. Mostly cloudy.10 mph93%29.95 "Hg8 mi
6:53 AM45 °FLight rain. Overcast.10 mph93%29.96 "Hg9 mi
5:53 AM45 °FMostly cloudy.12 mph93%29.96 "Hg9 mi
4:53 AM46 °FLight rain. Mostly cloudy.15 mph86%29.96 "Hg8 mi
3:53 AM48 °FOvercast.10 mph74%29.96 "Hg9 mi
2:53 AM45 °FPassing clouds.8 mph80%29.98 "Hg10 mi
1:53 AM48 °FMostly cloudy.10 mph77%29.96 "Hg10 mi
12:53 AM48 °FOvercast.13 mph80%29.97 "Hg10 mi
11:53 PM
Nov 22
48 °FOvercast.13 mph80%29.98 "Hg9 mi
Weather by CustomWeather, © 2014

See weather overviewHow to use our weather pages